MOLNIYA 1-91

Last updated on Jan. 25, 2020, 4:43 a.m. UTC

1 25485U 98054A   20024.78867750  .00000080  00000-0  10471-3 0  9990
2 25485  62.7581 300.1724 7170116 287.5513  10.8583  2.36436215157703
UTC
Height (km)
Latitude
Longitude
Inclination
Orbital Period
UTC large
Height (km)
Speed (km/s)
/
Latitude / Longitude
Inclination (degrees)
Orbital Period (minutes)
Azimuth
Elevation
Range (km)
Doppler Factor
iOS Compass Heading
iOS Angle

Next 30 passes for location: Hong Kong

Rise time Rise Azimuth (degrees) Set time Set Azimuth (degrees) Duration Max altitude (degrees)

No matching passes for this satellites